Time,TemperatureF,DewpointF,PressureIn,WindDirection,WindDirectionDegrees,WindSpeedMPH,WindSpeedGustMPH,Humidity,HourlyPrecipIn,Conditions,Clouds,dailyrainin,SoftwareType,DateUTC
2013-01-31 00:00:00,55.6,52.4,0.00,NNW,343,2.2,4.9,89,0.24,,---,0.00,VWS V13.01,2013-01-31 05:00:00,
2013-01-31 00:01:00,55.4,52.2,0.00,NNW,333,3.1,3.1,89,0.16,,---,0.00,VWS V13.01,2013-01-31 05:01:00,
2013-01-31 00:03:00,55.2,52.0,0.00,WNW,289,2.7,5.4,89,0.16,,---,0.04,VWS V13.01,2013-01-31 05:03:00,
2013-01-31 00:08:00,55.0,51.9,0.00,West,261,0.0,5.4,89,0.20,,---,0.04,VWS V13.01,2013-01-31 05:08:00,
2013-01-31 00:13:00,55.0,51.9,0.00,West,267,2.2,5.4,89,0.24,,---,0.08,VWS V13.01,2013-01-31 05:13:00,
2013-01-31 00:18:00,54.9,52.0,0.00,West,261,3.6,5.8,90,0.24,,---,0.08,VWS V13.01,2013-01-31 05:18:00,
2013-01-31 00:23:00,54.9,52.0,0.00,SSE,158,3.6,3.6,90,0.20,,---,0.08,VWS V13.01,2013-01-31 05:23:00,
2013-01-31 00:28:00,54.9,52.0,0.00,WSW,250,2.2,6.3,90,0.24,,---,0.12,VWS V13.01,2013-01-31 05:28:00,
2013-01-31 00:33:00,54.9,52.0,0.00,WNW,298,2.2,6.3,90,0.24,,---,0.12,VWS V13.01,2013-01-31 05:33:00,
2013-01-31 00:38:00,54.9,52.0,0.00,SSW,207,0.0,6.3,90,0.24,,---,0.12,VWS V13.01,2013-01-31 05:38:00,
2013-01-31 00:43:00,54.9,52.0,0.00,West,267,0.0,0.0,90,0.16,,---,0.12,VWS V13.01,2013-01-31 05:43:00,
2013-01-31 00:48:00,55.0,52.2,0.00,West,274,0.0,0.0,90,0.16,,---,0.12,VWS V13.01,2013-01-31 05:48:00,
2013-01-31 00:53:00,55.0,52.2,0.00,NE,39,0.0,0.0,90,0.16,,---,0.12,VWS V13.01,2013-01-31 05:53:00,
2013-01-31 00:59:00,55.0,52.2,0.00,West,270,0.0,3.6,90,0.16,,---,0.12,VWS V13.01,2013-01-31 05:59:00,
2013-01-31 01:04:00,55.0,52.2,0.00,NNW,333,0.0,3.1,90,0.12,,---,0.12,VWS V13.01,2013-01-31 06:04:00,
2013-01-31 01:09:00,55.0,52.2,0.00,NNW,334,2.2,3.6,90,0.12,,---,0.12,VWS V13.01,2013-01-31 06:09:00,
2013-01-31 01:14:00,54.9,52.3,0.00,East,97,0.0,3.6,91,0.12,,---,0.12,VWS V13.01,2013-01-31 06:14:00,
2013-01-31 01:19:00,54.9,52.3,0.00,NNE,20,0.0,3.6,91,0.12,,---,0.12,VWS V13.01,2013-01-31 06:19:00,
2013-01-31 01:24:00,54.9,52.3,0.00,NNW,334,3.1,5.4,91,0.04,,---,0.12,VWS V13.01,2013-01-31 06:24:00,
2013-01-31 01:29:00,54.7,52.1,0.00,North,5,0.0,5.4,91,0.08,,---,0.16,VWS V13.01,2013-01-31 06:29:00,
2013-01-31 01:34:00,54.5,51.9,0.00,West,275,0.0,5.4,91,0.08,,---,0.16,VWS V13.01,2013-01-31 06:34:00,
2013-01-31 01:39:00,54.5,51.9,0.00,WSW,239,4.0,5.4,91,0.08,,---,0.16,VWS V13.01,2013-01-31 06:39:00,
2013-01-31 01:44:00,54.3,51.8,0.00,West,268,3.1,7.6,91,0.04,,---,0.16,VWS V13.01,2013-01-31 06:44:00,
2013-01-31 01:49:00,54.1,51.6,0.00,West,271,0.0,7.6,91,0.04,,---,0.16,VWS V13.01,2013-01-31 06:49:00,
2013-01-31 01:54:00,54.0,50.8,0.00,NW,325,3.6,7.6,89,0.04,,---,0.16,VWS V13.01,2013-01-31 06:54:00,
2013-01-31 01:59:00,53.8,50.6,0.00,WNW,287,0.0,7.6,89,0.04,,---,0.16,VWS V13.01,2013-01-31 06:59:00,
2013-01-31 02:04:00,53.8,50.6,0.00,West,271,0.0,5.4,89,0.04,,---,0.16,VWS V13.01,2013-01-31 07:04:00,
2013-01-31 02:09:00,53.8,50.6,0.00,NE,51,0.0,5.4,89,0.04,,---,0.16,VWS V13.01,2013-01-31 07:09:00,
2013-01-31 02:14:00,53.6,50.4,0.00,WSW,250,2.7,5.4,89,0.04,,---,0.16,VWS V13.01,2013-01-31 07:14:00,
2013-01-31 02:19:00,53.4,50.3,0.00,West,272,3.1,8.1,89,0.04,,---,0.16,VWS V13.01,2013-01-31 07:19:00,
2013-01-31 02:24:00,53.2,50.1,0.00,SE,133,2.7,4.0,89,0.04,,---,0.16,VWS V13.01,2013-01-31 07:24:00,
2013-01-31 02:29:00,53.1,50.2,0.00,SW,233,4.0,5.4,90,0.04,,---,0.16,VWS V13.01,2013-01-31 07:29:00,
2013-01-31 02:34:00,53.1,49.9,0.00,West,267,0.0,5.4,89,0.04,,---,0.16,VWS V13.01,2013-01-31 07:34:00,
2013-01-31 02:40:00,53.1,49.9,0.00,SW,234,3.1,5.8,89,0.04,,---,0.16,VWS V13.01,2013-01-31 07:40:00,
2013-01-31 02:45:00,53.1,49.9,0.00,WNW,301,0.0,4.0,89,0.00,,---,0.16,VWS V13.01,2013-01-31 07:45:00,
2013-01-31 02:50:00,52.9,49.7,0.00,NW,305,2.2,4.0,89,0.00,,---,0.16,VWS V13.01,2013-01-31 07:50:00,
2013-01-31 02:55:00,52.9,49.7,0.00,WNW,297,0.0,6.3,89,0.00,,---,0.16,VWS V13.01,2013-01-31 07:55:00,
2013-01-31 03:00:00,52.5,48.8,0.00,West,277,2.2,2.2,87,0.04,,---,0.20,VWS V13.01,2013-01-31 08:00:00,
2013-01-31 03:05:00,52.0,47.0,0.00,NNW,343,3.6,6.3,83,0.04,,---,0.20,VWS V13.01,2013-01-31 08:05:00,
2013-01-31 03:10:00,51.6,46.0,0.00,NW,322,4.9,6.7,81,0.04,,---,0.20,VWS V13.01,2013-01-31 08:10:00,
2013-01-31 03:15:00,51.3,45.0,0.00,NW,308,2.7,6.7,79,0.04,,---,0.20,VWS V13.01,2013-01-31 08:15:00,
2013-01-31 03:20:00,50.9,43.3,0.00,WNW,294,4.9,5.4,75,0.04,,---,0.20,VWS V13.01,2013-01-31 08:20:00,
2013-01-31 03:25:00,50.7,42.4,0.00,NW,313,3.6,6.7,73,0.04,,---,0.20,VWS V13.01,2013-01-31 08:25:00,
2013-01-31 03:30:00,50.4,40.6,0.00,NW,316,2.7,12.3,69,0.04,,---,0.20,VWS V13.01,2013-01-31 08:30:00,
2013-01-31 03:35:00,50.2,40.0,0.00,NW,309,5.4,12.3,68,0.04,,---,0.20,VWS V13.01,2013-01-31 08:35:00,
2013-01-31 03:40:00,49.8,38.9,0.00,NW,326,2.7,5.4,66,0.04,,---,0.20,VWS V13.01,2013-01-31 08:40:00,
2013-01-31 03:45:00,49.6,38.0,0.00,NNW,343,7.6,7.6,64,0.04,,---,0.20,VWS V13.01,2013-01-31 08:45:00,
2013-01-31 03:50:00,49.5,37.0,0.00,WNW,292,3.1,8.7,62,0.04,,---,0.20,VWS V13.01,2013-01-31 08:50:00,
2013-01-31 03:55:00,49.3,37.6,0.00,NW,323,2.7,8.7,64,0.04,,---,0.20,VWS V13.01,2013-01-31 08:55:00,
2013-01-31 04:00:00,49.1,37.5,0.00,West,275,2.7,4.9,64,0.04,,---,0.20,VWS V13.01,2013-01-31 09:00:00,
2013-01-31 04:05:00,48.7,37.5,0.00,NW,321,0.0,5.4,65,0.00,,---,0.20,VWS V13.01,2013-01-31 09:05:00,
2013-01-31 04:10:00,48.4,37.2,0.00,NNW,335,2.7,5.4,65,0.00,,---,0.20,VWS V13.01,2013-01-31 09:10:00,
2013-01-31 04:15:00,48.4,36.8,0.00,WNW,299,3.6,5.4,64,0.00,,---,0.20,VWS V13.01,2013-01-31 09:15:00,
2013-01-31 04:20:00,48.2,36.2,0.00,WNW,295,4.0,4.0,63,0.00,,---,0.20,VWS V13.01,2013-01-31 09:20:00,
2013-01-31 04:25:00,48.2,36.2,0.00,NW,304,3.1,5.4,63,0.00,,---,0.20,VWS V13.01,2013-01-31 09:25:00,
2013-01-31 04:30:00,48.0,35.2,0.00,NNW,337,5.4,6.7,61,0.00,,---,0.20,VWS V13.01,2013-01-31 09:30:00,
2013-01-31 04:35:00,47.8,34.2,0.00,NW,316,4.0,8.3,59,0.00,,---,0.20,VWS V13.01,2013-01-31 09:35:00,
2013-01-31 04:40:00,47.7,33.2,0.00,NNW,338,5.8,6.3,57,0.00,,---,0.20,VWS V13.01,2013-01-31 09:40:00,
2013-01-31 04:45:00,47.5,33.0,0.00,NNW,333,8.1,8.1,57,0.00,,---,0.20,VWS V13.01,2013-01-31 09:45:00,
2013-01-31 04:50:00,47.3,32.0,0.00,WNW,295,6.3,8.3,55,0.00,,---,0.20,VWS V13.01,2013-01-31 09:50:00,
2013-01-31 04:55:00,47.1,30.9,0.00,WNW,300,7.6,10.1,53,0.00,,---,0.20,VWS V13.01,2013-01-31 09:55:00,
2013-01-31 05:00:00,47.1,29.9,0.00,NW,318,5.4,8.7,51,0.00,,---,0.20,VWS V13.01,2013-01-31 10:00:00,
2013-01-31 05:05:00,46.9,29.3,0.00,WNW,294,5.8,15.4,50,0.00,,---,0.20,VWS V13.01,2013-01-31 10:05:00,
2013-01-31 05:10:00,46.6,28.0,0.00,WNW,287,5.8,15.4,48,0.00,,---,0.20,VWS V13.01,2013-01-31 10:10:00,
2013-01-31 05:15:00,46.4,27.8,0.00,NNW,327,5.8,15.4,48,0.00,,---,0.20,VWS V13.01,2013-01-31 10:15:00,
2013-01-31 05:20:00,46.0,27.5,0.00,NW,325,5.8,8.1,48,0.00,,---,0.20,VWS V13.01,2013-01-31 10:20:00,
2013-01-31 05:25:00,45.7,27.1,0.00,WNW,299,8.7,13.2,48,0.00,,---,0.20,VWS V13.01,2013-01-31 10:25:00,
2013-01-31 05:30:00,45.5,27.0,0.00,WNW,288,4.9,13.2,48,0.00,,---,0.20,VWS V13.01,2013-01-31 10:30:00,
2013-01-31 05:35:00,45.1,26.6,0.00,NW,307,8.1,13.2,48,0.00,,---,0.20,VWS V13.01,2013-01-31 10:35:00,
2013-01-31 05:40:00,45.1,26.6,0.00,West,277,2.7,4.9,48,0.00,,---,0.20,VWS V13.01,2013-01-31 10:40:00,
2013-01-31 05:45:00,44.8,26.3,0.00,West,272,2.7,7.6,48,0.00,,---,0.20,VWS V13.01,2013-01-31 10:45:00,
2013-01-31 05:50:00,44.6,26.1,0.00,NNW,341,5.4,8.3,48,0.00,,---,0.20,VWS V13.01,2013-01-31 10:50:00,
2013-01-31 05:55:00,44.2,25.8,0.00,NW,316,3.1,8.3,48,0.00,,---,0.20,VWS V13.01,2013-01-31 10:55:00,
2013-01-31 06:00:00,44.1,25.6,0.00,NW,317,5.4,6.3,48,0.00,,---,0.20,VWS V13.01,2013-01-31 11:00:00,
2013-01-31 06:05:00,43.9,24.5,0.00,NW,311,5.4,10.1,46,0.00,,---,0.20,VWS V13.01,2013-01-31 11:05:00,
2013-01-31 06:10:00,43.7,25.3,0.00,WNW,303,6.7,10.1,48,0.00,,---,0.20,VWS V13.01,2013-01-31 11:10:00,
2013-01-31 06:15:00,43.5,23.6,0.00,NW,322,8.3,10.5,45,0.00,,---,0.20,VWS V13.01,2013-01-31 11:15:00,
2013-01-31 06:20:00,43.3,24.0,0.00,West,279,4.9,5.4,46,0.00,,---,0.20,VWS V13.01,2013-01-31 11:20:00,
2013-01-31 06:25:00,43.0,22.6,0.00,WNW,294,8.7,10.5,44,0.00,,---,0.20,VWS V13.01,2013-01-31 11:25:00,
2013-01-31 06:30:00,43.0,23.6,0.00,NW,316,6.3,10.5,46,0.00,,---,0.20,VWS V13.01,2013-01-31 11:30:00,
2013-01-31 06:35:00,42.8,24.5,0.00,NW,314,2.2,10.5,48,0.00,,---,0.20,VWS V13.01,2013-01-31 11:35:00,
2013-01-31 06:40:00,42.6,25.3,0.00,NW,325,5.8,6.7,50,0.00,,---,0.20,VWS V13.01,2013-01-31 11:40:00,
2013-01-31 06:45:00,42.4,25.1,0.00,West,275,4.0,7.2,50,0.00,,---,0.20,VWS V13.01,2013-01-31 11:45:00,
2013-01-31 06:50:00,42.3,25.4,0.00,WNW,285,3.1,7.2,51,0.00,,---,0.20,VWS V13.01,2013-01-31 11:50:00,
2013-01-31 06:55:00,42.1,25.3,0.00,NNW,337,4.9,7.2,51,0.00,,---,0.20,VWS V13.01,2013-01-31 11:55:00,
2013-01-31 07:00:00,41.7,24.5,0.00,NW,309,5.8,5.8,50,0.00,,---,0.20,VWS V13.01,2013-01-31 12:00:00,
2013-01-31 07:05:00,41.7,24.5,0.00,NW,316,5.8,8.3,50,0.00,,---,0.20,VWS V13.01,2013-01-31 12:05:00,
2013-01-31 07:10:00,41.5,24.3,0.00,NW,307,3.1,8.3,50,0.00,,---,0.20,VWS V13.01,2013-01-31 12:10:00,
2013-01-31 07:15:00,41.2,23.0,0.00,NNW,330,8.3,8.3,48,0.00,,---,0.20,VWS V13.01,2013-01-31 12:15:00,
2013-01-31 07:20:00,41.2,21.5,0.00,NNW,340,8.1,9.2,45,0.00,,---,0.20,VWS V13.01,2013-01-31 12:20:00,
2013-01-31 07:25:00,41.0,20.2,0.00,North,353,3.6,9.6,43,0.00,,---,0.20,VWS V13.01,2013-01-31 12:25:00,
2013-01-31 07:30:00,40.6,19.9,0.00,NW,317,3.1,9.6,43,0.00,,---,0.20,VWS V13.01,2013-01-31 12:30:00,
2013-01-31 07:35:00,40.5,18.6,0.00,NNW,339,7.2,11.0,41,0.00,,---,0.20,VWS V13.01,2013-01-31 12:35:00,
2013-01-31 07:40:00,40.3,18.5,0.00,NE,40,5.4,5.4,41,0.00,,---,0.20,VWS V13.01,2013-01-31 12:40:00,
2013-01-31 07:45:00,39.9,17.6,0.00,NW,316,5.4,10.5,40,0.00,,---,0.20,VWS V13.01,2013-01-31 12:45:00,
2013-01-31 07:50:00,39.9,17.6,0.00,North,350,7.6,12.8,40,0.00,,---,0.20,VWS V13.01,2013-01-31 12:50:00,
2013-01-31 07:55:00,39.9,17.0,0.00,NNW,343,7.6,12.8,39,0.00,,---,0.20,VWS V13.01,2013-01-31 12:55:00,
2013-01-31 08:00:00,39.7,16.8,0.00,NW,314,3.1,5.4,39,0.00,,---,0.20,VWS V13.01,2013-01-31 13:00:00,
2013-01-31 08:05:00,39.9,17.6,0.00,WNW,295,4.0,8.7,40,0.00,,---,0.20,VWS V13.01,2013-01-31 13:05:00,
2013-01-31 08:10:00,39.9,17.6,0.00,NW,321,4.0,8.7,40,0.00,,---,0.20,VWS V13.01,2013-01-31 13:10:00,
2013-01-31 08:15:00,39.9,17.6,0.00,NNW,333,3.1,8.7,40,0.00,,---,0.20,VWS V13.01,2013-01-31 13:15:00,
2013-01-31 08:20:00,40.1,17.7,0.00,North,9,2.2,2.7,40,0.00,,---,0.20,VWS V13.01,2013-01-31 13:20:00,
2013-01-31 08:25:00,40.3,18.5,0.00,NW,319,4.0,5.8,41,0.00,,---,0.20,VWS V13.01,2013-01-31 13:25:00,
2013-01-31 08:30:00,40.6,19.4,0.00,NW,320,4.9,6.3,42,0.00,,---,0.20,VWS V13.01,2013-01-31 13:30:00,
2013-01-31 08:35:00,41.0,19.1,0.00,NW,324,5.8,6.3,41,0.00,,---,0.20,VWS V13.01,2013-01-31 13:35:00,
2013-01-31 08:40:00,41.4,19.5,0.00,SE,141,4.9,4.9,41,0.00,,---,0.20,VWS V13.01,2013-01-31 13:40:00,
2013-01-31 08:45:00,41.7,19.2,0.00,SW,218,9.6,9.6,40,0.00,,---,0.20,VWS V13.01,2013-01-31 13:45:00,
2013-01-31 08:50:00,41.7,18.6,0.00,North,349,8.1,12.3,39,0.00,,---,0.20,VWS V13.01,2013-01-31 13:50:00,
2013-01-31 08:55:00,41.5,17.8,0.00,WSW,258,7.6,12.3,38,0.00,,---,0.20,VWS V13.01,2013-01-31 13:55:00,
2013-01-31 09:00:00,41.5,15.9,0.00,NW,316,13.2,15.4,35,0.00,,---,0.20,VWS V13.01,2013-01-31 14:00:00,
2013-01-31 09:05:00,41.4,16.4,0.00,SSW,213,5.4,15.4,36,0.00,,---,0.20,VWS V13.01,2013-01-31 14:05:00,
2013-01-31 09:10:00,41.5,16.6,0.00,NW,325,6.3,15.4,36,0.00,,---,0.20,VWS V13.01,2013-01-31 14:10:00,
2013-01-31 09:15:00,41.7,17.4,0.00,NNW,335,6.3,15.4,37,0.00,,---,0.20,VWS V13.01,2013-01-31 14:15:00,
2013-01-31 09:20:00,42.1,17.1,0.00,NW,322,7.6,7.6,36,0.00,,---,0.20,VWS V13.01,2013-01-31 14:20:00,
2013-01-31 09:25:00,42.3,17.2,0.00,WNW,291,3.6,10.1,36,0.00,,---,0.20,VWS V13.01,2013-01-31 14:25:00,
2013-01-31 09:30:00,42.6,18.8,0.00,West,263,3.1,10.1,38,0.00,,---,0.20,VWS V13.01,2013-01-31 14:30:00,
2013-01-31 09:35:00,42.6,17.5,0.00,WNW,284,8.1,13.2,36,0.00,,---,0.20,VWS V13.01,2013-01-31 14:35:00,
2013-01-31 09:40:00,42.8,19.0,0.00,WNW,282,4.9,10.5,38,0.00,,---,0.20,VWS V13.01,2013-01-31 14:40:00,
2013-01-31 09:45:00,43.2,18.7,0.00,NW,307,2.7,10.5,37,0.00,,---,0.20,VWS V13.01,2013-01-31 14:45:00,
2013-01-31 09:51:00,43.7,19.1,0.00,SE,128,3.1,10.5,37,0.00,,---,0.20,VWS V13.01,2013-01-31 14:51:00,
2013-01-31 09:56:00,43.9,19.9,0.00,WNW,298,6.3,10.5,38,0.00,,---,0.20,VWS V13.01,2013-01-31 14:56:00,
2013-01-31 10:01:00,44.2,20.3,0.00,SW,227,3.1,4.0,38,0.00,,---,0.20,VWS V13.01,2013-01-31 15:01:00,
2013-01-31 10:06:00,44.6,20.0,0.00,NNE,29,4.9,9.6,37,0.00,,---,0.20,VWS V13.01,2013-01-31 15:06:00,
2013-01-31 10:11:00,44.6,18.7,0.00,NW,308,5.8,13.2,35,0.00,,---,0.20,VWS V13.01,2013-01-31 15:11:00,
2013-01-31 10:16:00,44.2,18.3,0.00,NNW,333,7.6,13.2,35,0.00,,---,0.20,VWS V13.01,2013-01-31 15:16:00,
2013-01-31 10:21:00,44.1,18.2,0.00,WNW,286,5.8,11.0,35,0.00,,---,0.20,VWS V13.01,2013-01-31 15:21:00,
2013-01-31 10:26:00,43.7,19.1,0.00,WNW,288,5.8,11.0,37,0.00,,---,0.20,VWS V13.01,2013-01-31 15:26:00,
2013-01-31 10:31:00,43.5,19.6,0.00,NW,323,2.7,11.0,38,0.00,,---,0.20,VWS V13.01,2013-01-31 15:31:00,
2013-01-31 10:36:00,43.5,19.6,0.00,NW,318,8.3,11.0,38,0.00,,---,0.20,VWS V13.01,2013-01-31 15:36:00,
2013-01-31 10:41:00,43.9,19.3,0.00,NNW,342,3.1,8.7,37,0.00,,---,0.20,VWS V13.01,2013-01-31 15:41:00,
2013-01-31 10:46:00,44.6,19.3,0.00,NW,304,4.0,8.7,36,0.00,,---,0.20,VWS V13.01,2013-01-31 15:46:00,
2013-01-31 10:51:00,45.1,18.5,0.00,WNW,300,8.3,10.1,34,0.00,,---,0.20,VWS V13.01,2013-01-31 15:51:00,
2013-01-31 10:56:00,45.1,17.8,0.00,West,265,5.4,13.2,33,0.00,,---,0.20,VWS V13.01,2013-01-31 15:56:00,
2013-01-31 11:01:00,45.3,17.9,0.00,WSW,256,2.7,7.6,33,0.00,,---,0.20,VWS V13.01,2013-01-31 16:01:00,
2013-01-31 11:06:00,45.1,17.1,0.00,South,189,2.7,12.8,32,0.00,,---,0.20,VWS V13.01,2013-01-31 16:06:00,
2013-01-31 11:11:00,45.5,17.4,0.00,WNW,283,12.8,12.8,32,0.00,,---,0.20,VWS V13.01,2013-01-31 16:11:00,
2013-01-31 11:16:00,45.3,16.5,0.00,WNW,296,9.6,15.0,31,0.00,,---,0.20,VWS V13.01,2013-01-31 16:16:00,
2013-01-31 11:21:00,45.3,16.5,0.00,NW,321,8.7,8.7,31,0.00,,---,0.20,VWS V13.01,2013-01-31 16:21:00,
2013-01-31 11:26:00,44.8,16.0,0.00,SW,220,5.4,10.5,31,0.00,,---,0.20,VWS V13.01,2013-01-31 16:26:00,
2013-01-31 11:31:00,44.6,15.1,0.00,NW,318,5.4,11.0,30,0.00,,---,0.20,VWS V13.01,2013-01-31 16:31:00,
2013-01-31 11:36:00,45.1,16.3,0.00,NW,311,4.9,11.0,31,0.00,,---,0.20,VWS V13.01,2013-01-31 16:36:00,
2013-01-31 11:41:00,46.0,16.4,0.00,SSW,197,5.4,8.7,30,0.00,,---,0.20,VWS V13.01,2013-01-31 16:41:00,
2013-01-31 11:46:00,46.8,17.7,0.00,NNW,343,8.3,10.5,31,0.00,,---,0.20,VWS V13.01,2013-01-31 16:46:00,
2013-01-31 11:51:00,46.2,16.5,0.00,NW,313,8.7,12.3,30,0.00,,---,0.20,VWS V13.01,2013-01-31 16:51:00,
2013-01-31 11:56:00,44.8,15.3,0.00,NW,306,3.6,12.3,30,0.00,,---,0.20,VWS V13.01,2013-01-31 16:56:00,
2013-01-31 12:01:00,44.1,14.6,0.00,NNW,332,10.1,10.1,30,0.00,,---,0.20,VWS V13.01,2013-01-31 17:01:00,
2013-01-31 12:06:00,44.6,15.9,0.00,West,259,4.0,10.1,31,0.00,,---,0.20,VWS V13.01,2013-01-31 17:06:00,
2013-01-31 12:11:00,45.1,16.3,0.00,NW,317,5.8,13.2,31,0.00,,---,0.20,VWS V13.01,2013-01-31 17:11:00,
2013-01-31 12:16:00,46.0,16.4,0.00,North,357,0.0,13.2,30,0.00,,---,0.20,VWS V13.01,2013-01-31 17:16:00,
2013-01-31 12:21:00,46.8,17.0,0.00,North,353,15.4,15.4,30,0.00,,---,0.20,VWS V13.01,2013-01-31 17:21:00,
2013-01-31 12:26:00,46.8,17.0,0.00,WNW,300,8.3,15.4,30,0.00,,---,0.20,VWS V13.01,2013-01-31 17:26:00,
2013-01-31 12:31:00,47.1,17.3,0.00,NNW,338,7.6,15.4,30,0.00,,---,0.20,VWS V13.01,2013-01-31 17:31:00,
2013-01-31 12:36:00,47.7,17.8,0.00,NW,305,5.4,15.4,30,0.00,,---,0.20,VWS V13.01,2013-01-31 17:36:00,
2013-01-31 12:48:00,47.1,17.3,0.00,NNW,330,5.4,5.4,30,0.00,,---,0.20,VWS V13.01,2013-01-31 17:48:00,
2013-01-31 12:53:00,46.2,16.5,0.00,NNW,333,7.6,12.3,30,0.00,,---,0.20,VWS V13.01,2013-01-31 17:53:00,
2013-01-31 12:58:00,46.8,17.0,0.00,NW,318,4.9,12.3,30,0.00,,---,0.20,VWS V13.01,2013-01-31 17:58:00,
2013-01-31 13:04:00,47.3,17.5,0.00,NNW,339,3.6,12.3,30,0.00,,---,0.20,VWS V13.01,2013-01-31 18:04:00,
2013-01-31 13:09:00,48.4,17.6,0.00,North,0,4.0,12.3,29,0.00,,---,0.20,VWS V13.01,2013-01-31 18:09:00,
2013-01-31 13:14:00,49.5,18.5,0.00,West,276,4.0,12.3,29,0.00,,---,0.20,VWS V13.01,2013-01-31 18:14:00,
2013-01-31 13:19:00,50.0,18.2,0.00,West,274,5.4,14.5,28,0.00,,---,0.20,VWS V13.01,2013-01-31 18:19:00,
2013-01-31 13:24:00,49.8,18.0,0.00,NW,319,7.6,12.8,28,0.00,,---,0.20,VWS V13.01,2013-01-31 18:24:00,
2013-01-31 13:29:00,48.9,17.3,0.00,NNW,332,2.2,12.8,28,0.00,,---,0.20,VWS V13.01,2013-01-31 18:29:00,
2013-01-31 13:34:00,48.7,17.1,0.00,NW,307,8.1,12.8,28,0.00,,---,0.20,VWS V13.01,2013-01-31 18:34:00,
2013-01-31 13:39:00,48.7,17.1,0.00,WNW,296,4.0,12.8,28,0.00,,---,0.20,VWS V13.01,2013-01-31 18:39:00,
2013-01-31 13:44:00,48.0,16.5,0.00,NW,313,3.6,11.0,28,0.00,,---,0.20,VWS V13.01,2013-01-31 18:44:00,
2013-01-31 13:49:00,47.1,15.7,0.00,NW,322,8.3,11.0,28,0.00,,---,0.20,VWS V13.01,2013-01-31 18:49:00,
2013-01-31 13:54:00,47.1,15.7,0.00,WNW,299,5.4,12.8,28,0.00,,---,0.20,VWS V13.01,2013-01-31 18:54:00,
2013-01-31 13:59:00,47.3,15.9,0.00,NNW,330,5.4,13.6,28,0.00,,---,0.20,VWS V13.01,2013-01-31 18:59:00,
2013-01-31 14:04:00,46.8,15.4,0.00,NW,315,8.3,11.0,28,0.00,,---,0.20,VWS V13.01,2013-01-31 19:04:00,
2013-01-31 14:09:00,46.0,14.8,0.00,NW,325,8.3,12.8,28,0.00,,---,0.20,VWS V13.01,2013-01-31 19:09:00,
2013-01-31 14:14:00,46.0,14.8,0.00,WNW,299,11.0,13.2,28,0.00,,---,0.20,VWS V13.01,2013-01-31 19:14:00,
2013-01-31 14:19:00,45.9,14.6,0.00,NW,307,8.7,17.0,28,0.00,,---,0.20,VWS V13.01,2013-01-31 19:19:00,
2013-01-31 14:24:00,45.3,14.1,0.00,NW,326,12.3,12.8,28,0.00,,---,0.20,VWS V13.01,2013-01-31 19:24:00,
2013-01-31 14:29:00,44.6,13.5,0.00,NNW,331,8.3,12.8,28,0.00,,---,0.20,VWS V13.01,2013-01-31 19:29:00,
2013-01-31 14:34:00,44.2,14.0,0.00,West,275,6.3,12.8,29,0.00,,---,0.20,VWS V13.01,2013-01-31 19:34:00,
2013-01-31 14:39:00,44.4,14.2,0.00,NW,318,5.8,12.8,29,0.00,,---,0.20,VWS V13.01,2013-01-31 19:39:00,
2013-01-31 14:44:00,45.0,14.6,0.00,NW,305,5.8,8.7,29,0.00,,---,0.20,VWS V13.01,2013-01-31 19:44:00,
2013-01-31 14:49:00,45.3,14.1,0.00,NW,318,5.4,15.4,28,0.00,,---,0.20,VWS V13.01,2013-01-31 19:49:00,
2013-01-31 14:54:00,45.0,14.6,0.00,NW,320,8.1,15.4,29,0.00,,---,0.20,VWS V13.01,2013-01-31 19:54:00,
2013-01-31 14:59:00,45.1,14.8,0.00,WNW,296,2.7,15.4,29,0.00,,---,0.20,VWS V13.01,2013-01-31 19:59:00,
2013-01-31 15:04:00,45.9,15.4,0.00,North,353,10.1,14.1,29,0.00,,---,0.20,VWS V13.01,2013-01-31 20:04:00,
2013-01-31 15:09:00,46.0,15.6,0.00,North,4,5.4,15.0,29,0.00,,---,0.20,VWS V13.01,2013-01-31 20:09:00,
2013-01-31 15:14:00,46.0,15.6,0.00,ENE,64,5.4,15.0,29,0.00,,---,0.20,VWS V13.01,2013-01-31 20:14:00,
2013-01-31 15:20:00,46.2,15.7,0.00,NNW,335,11.0,15.0,29,0.00,,---,0.20,VWS V13.01,2013-01-31 20:20:00,
2013-01-31 15:25:00,46.2,15.7,0.00,NNW,335,5.8,13.2,29,0.00,,---,0.20,VWS V13.01,2013-01-31 20:25:00,
2013-01-31 15:30:00,45.9,15.4,0.00,NNW,329,11.0,14.5,29,0.00,,---,0.20,VWS V13.01,2013-01-31 20:30:00,
2013-01-31 15:35:00,45.3,14.9,0.00,West,259,4.9,14.5,29,0.00,,---,0.20,VWS V13.01,2013-01-31 20:35:00,
2013-01-31 15:40:00,44.8,14.5,0.00,NW,307,2.7,14.5,29,0.00,,---,0.20,VWS V13.01,2013-01-31 20:40:00,
2013-01-31 15:45:00,44.4,14.2,0.00,West,280,4.9,6.3,29,0.00,,---,0.20,VWS V13.01,2013-01-31 20:45:00,
2013-01-31 15:50:00,44.2,14.0,0.00,NW,318,8.7,8.7,29,0.00,,---,0.20,VWS V13.01,2013-01-31 20:50:00,
2013-01-31 15:55:00,44.1,14.6,0.00,WNW,300,3.6,8.7,30,0.00,,---,0.20,VWS V13.01,2013-01-31 20:55:00,
2013-01-31 16:00:00,44.1,14.6,0.00,NNW,328,6.3,6.3,30,0.00,,---,0.20,VWS V13.01,2013-01-31 21:00:00,
2013-01-31 16:05:00,43.9,13.7,0.00,North,353,8.7,13.2,29,0.00,,---,0.20,VWS V13.01,2013-01-31 21:05:00,
2013-01-31 16:10:00,43.5,13.4,0.00,West,266,13.2,13.2,29,0.00,,---,0.20,VWS V13.01,2013-01-31 21:10:00,
2013-01-31 16:15:00,43.2,13.1,0.00,WSW,237,8.1,15.0,29,0.00,,---,0.20,VWS V13.01,2013-01-31 21:15:00,
2013-01-31 16:20:00,43.0,12.9,0.00,NNW,340,3.1,8.1,29,0.00,,---,0.20,VWS V13.01,2013-01-31 21:20:00,
2013-01-31 16:25:00,43.0,12.9,0.00,NW,306,7.2,9.6,29,0.00,,---,0.20,VWS V13.01,2013-01-31 21:25:00,
2013-01-31 16:30:00,43.0,12.9,0.00,NW,322,5.8,11.0,29,0.00,,---,0.20,VWS V13.01,2013-01-31 21:30:00,
2013-01-31 16:35:00,42.6,13.4,0.00,WNW,283,8.7,11.0,30,0.00,,---,0.20,VWS V13.01,2013-01-31 21:35:00,
2013-01-31 16:40:00,42.4,13.2,0.00,NNW,337,6.3,6.3,30,0.00,,---,0.20,VWS V13.01,2013-01-31 21:40:00,
2013-01-31 16:45:00,42.3,13.1,0.00,NNW,343,5.8,8.7,30,0.00,,---,0.20,VWS V13.01,2013-01-31 21:45:00,
2013-01-31 16:50:00,41.9,12.7,0.00,NNW,327,6.3,8.7,30,0.00,,---,0.20,VWS V13.01,2013-01-31 21:50:00,
2013-01-31 16:55:00,41.7,12.6,0.00,NW,324,2.7,8.7,30,0.00,,---,0.20,VWS V13.01,2013-01-31 21:55:00,
2013-01-31 17:00:00,41.7,12.6,0.00,NW,325,5.8,5.8,30,0.00,,---,0.20,VWS V13.01,2013-01-31 22:00:00,
2013-01-31 17:05:00,41.7,12.6,0.00,WNW,293,4.9,7.6,30,0.00,,---,0.20,VWS V13.01,2013-01-31 22:05:00,
2013-01-31 17:10:00,41.7,12.6,0.00,WNW,303,5.4,8.7,30,0.00,,---,0.20,VWS V13.01,2013-01-31 22:10:00,
2013-01-31 17:15:00,41.5,12.4,0.00,NW,318,4.0,8.7,30,0.00,,---,0.20,VWS V13.01,2013-01-31 22:15:00,
2013-01-31 17:20:00,41.5,12.4,0.00,NW,320,6.3,6.3,30,0.00,,---,0.20,VWS V13.01,2013-01-31 22:20:00,
2013-01-31 17:25:00,41.5,12.4,0.00,West,262,2.7,6.3,30,0.00,,---,0.20,VWS V13.01,2013-01-31 22:25:00,
2013-01-31 17:30:00,41.4,13.0,0.00,WNW,301,3.1,6.3,31,0.00,,---,0.20,VWS V13.01,2013-01-31 22:30:00,
2013-01-31 17:35:00,41.4,13.0,0.00,NW,306,4.0,9.6,31,0.00,,---,0.20,VWS V13.01,2013-01-31 22:35:00,
2013-01-31 17:40:00,41.4,13.0,0.00,NW,325,3.1,4.0,31,0.00,,---,0.20,VWS V13.01,2013-01-31 22:40:00,
2013-01-31 17:45:00,41.0,12.7,0.00,NW,313,8.1,11.0,31,0.00,,---,0.20,VWS V13.01,2013-01-31 22:45:00,
2013-01-31 17:50:00,41.0,12.7,0.00,WSW,255,2.7,11.0,31,0.00,,---,0.20,VWS V13.01,2013-01-31 22:50:00,
2013-01-31 17:55:00,40.6,12.4,0.00,West,266,4.9,11.0,31,0.00,,---,0.20,VWS V13.01,2013-01-31 22:55:00,
2013-01-31 18:00:00,40.5,12.2,0.00,West,278,4.5,4.5,31,0.00,,---,0.20,VWS V13.01,2013-01-31 23:00:00,
2013-01-31 18:05:00,40.3,12.1,0.00,SSW,200,3.6,6.3,31,0.00,,---,0.20,VWS V13.01,2013-01-31 23:05:00,
2013-01-31 18:10:00,40.1,11.9,0.00,NW,326,4.0,7.2,31,0.00,,---,0.20,VWS V13.01,2013-01-31 23:10:00,
2013-01-31 18:15:00,39.9,12.5,0.00,North,0,3.1,7.2,32,0.00,,---,0.20,VWS V13.01,2013-01-31 23:15:00,
2013-01-31 18:20:00,39.7,12.3,0.00,NNW,334,5.8,5.8,32,0.00,,---,0.20,VWS V13.01,2013-01-31 23:20:00,
2013-01-31 18:25:00,39.7,12.3,0.00,NW,323,0.0,5.8,32,0.00,,---,0.20,VWS V13.01,2013-01-31 23:25:00,
2013-01-31 18:30:00,39.4,12.0,0.00,WNW,287,3.1,5.8,32,0.00,,---,0.20,VWS V13.01,2013-01-31 23:30:00,
2013-01-31 18:35:00,39.2,11.8,0.00,NNW,337,4.9,5.8,32,0.00,,---,0.20,VWS V13.01,2013-01-31 23:35:00,
2013-01-31 18:40:00,39.2,12.5,0.00,WNW,302,2.7,4.9,33,0.00,,---,0.20,VWS V13.01,2013-01-31 23:40:00,
2013-01-31 18:45:00,39.0,12.4,0.00,SSW,202,0.0,4.9,33,0.00,,---,0.20,VWS V13.01,2013-01-31 23:45:00,
2013-01-31 18:50:00,38.7,12.1,0.00,WNW,284,0.0,4.9,33,0.00,,---,0.20,VWS V13.01,2013-01-31 23:50:00,
2013-01-31 18:55:00,38.5,11.9,0.00,WNW,286,0.0,4.9,33,0.00,,---,0.20,VWS V13.01,2013-01-31 23:55:00,
2013-01-31 19:00:00,38.5,12.6,0.00,WSW,258,0.0,0.0,34,0.00,,---,0.20,VWS V13.01,2013-02-01 00:00:00,
2013-01-31 19:05:00,38.1,12.2,0.00,NW,312,0.0,0.0,34,0.00,,---,0.20,VWS V13.01,2013-02-01 00:05:00,
2013-01-31 19:10:00,37.9,13.4,0.00,NW,312,0.0,0.0,36,0.00,,---,0.20,VWS V13.01,2013-02-01 00:10:00,
2013-01-31 19:15:00,37.6,13.1,0.00,NW,312,0.0,0.0,36,0.00,,---,0.20,VWS V13.01,2013-02-01 00:15:00,
2013-01-31 19:20:00,37.4,14.1,0.00,NW,312,0.0,0.0,38,0.00,,---,0.20,VWS V13.01,2013-02-01 00:20:00,
2013-01-31 19:25:00,37.0,15.0,0.00,NW,312,0.0,0.0,40,0.00,,---,0.20,VWS V13.01,2013-02-01 00:25:00,
2013-01-31 19:30:00,36.9,14.8,0.00,NW,312,0.0,0.0,40,0.00,,---,0.20,VWS V13.01,2013-02-01 00:30:00,
2013-01-31 19:35:00,36.7,14.6,0.00,NW,312,0.0,0.0,40,0.00,,---,0.20,VWS V13.01,2013-02-01 00:35:00,
2013-01-31 19:40:00,36.5,14.5,0.00,NW,312,0.0,0.0,40,0.00,,---,0.20,VWS V13.01,2013-02-01 00:40:00,
2013-01-31 19:45:00,36.3,14.3,0.00,NW,312,0.0,0.0,40,0.00,,---,0.20,VWS V13.01,2013-02-01 00:45:00,
2013-01-31 19:50:00,36.0,14.0,0.00,NW,312,0.0,0.0,40,0.00,,---,0.20,VWS V13.01,2013-02-01 00:50:00,
2013-01-31 19:55:00,35.6,14.2,0.00,NW,312,0.0,0.0,41,0.00,,---,0.20,VWS V13.01,2013-02-01 00:55:00,
2013-01-31 20:00:00,35.4,14.6,0.00,NW,312,0.0,0.0,42,0.00,,---,0.20,VWS V13.01,2013-02-01 01:00:00,
2013-01-31 20:05:00,35.2,14.5,0.00,NW,312,0.0,0.0,42,0.00,,---,0.20,VWS V13.01,2013-02-01 01:05:00,
2013-01-31 20:10:00,35.1,15.4,0.00,NW,312,0.0,0.0,44,0.00,,---,0.20,VWS V13.01,2013-02-01 01:10:00,
2013-01-31 20:15:00,34.9,15.7,0.00,NW,312,0.0,0.0,45,0.00,,---,0.20,VWS V13.01,2013-02-01 01:15:00,
2013-01-31 20:20:00,34.9,16.2,0.00,NW,312,0.0,0.0,46,0.00,,---,0.20,VWS V13.01,2013-02-01 01:20:00,
2013-01-31 20:25:00,34.5,15.9,0.00,NW,312,0.0,0.0,46,0.00,,---,0.20,VWS V13.01,2013-02-01 01:25:00,
2013-01-31 20:30:00,34.3,15.7,0.00,NW,312,0.0,0.0,46,0.00,,---,0.20,VWS V13.01,2013-02-01 01:30:00,
2013-01-31 20:35:00,34.2,15.6,0.00,NW,312,0.0,0.0,46,0.00,,---,0.20,VWS V13.01,2013-02-01 01:35:00,
2013-01-31 20:41:00,34.0,15.4,0.00,NW,312,0.0,0.0,46,0.00,,---,0.20,VWS V13.01,2013-02-01 01:41:00,
2013-01-31 20:46:00,33.8,15.7,0.00,NW,312,0.0,0.0,47,0.00,,---,0.20,VWS V13.01,2013-02-01 01:46:00,
2013-01-31 20:51:00,33.6,16.0,0.00,NW,312,0.0,0.0,48,0.00,,---,0.20,VWS V13.01,2013-02-01 01:51:00,
2013-01-31 20:56:00,33.4,16.8,0.00,NW,312,0.0,0.0,50,0.00,,---,0.20,VWS V13.01,2013-02-01 01:56:00,
2013-01-31 21:01:00,33.3,16.6,0.00,NW,312,0.0,0.0,50,0.00,,---,0.20,VWS V13.01,2013-02-01 02:01:00,
2013-01-31 21:06:00,33.1,16.9,0.00,NW,312,0.0,0.0,51,0.00,,---,0.20,VWS V13.01,2013-02-01 02:06:00,
2013-01-31 21:11:00,32.9,16.8,0.00,NW,312,0.0,0.0,51,0.00,,---,0.20,VWS V13.01,2013-02-01 02:11:00,
2013-01-31 21:16:00,32.7,16.6,0.00,NW,312,0.0,0.0,51,0.00,,---,0.20,VWS V13.01,2013-02-01 02:16:00,
2013-01-31 21:21:00,32.7,16.6,0.00,NW,312,0.0,0.0,51,0.00,,---,0.20,VWS V13.01,2013-02-01 02:21:00,
2013-01-31 21:26:00,32.5,16.4,0.00,NW,312,0.0,0.0,51,0.00,,---,0.20,VWS V13.01,2013-02-01 02:26:00,
2013-01-31 21:31:00,32.5,16.9,0.00,SW,231,0.0,3.1,52,0.00,,---,0.20,VWS V13.01,2013-02-01 02:31:00,
2013-01-31 21:36:00,32.5,16.4,0.00,WSW,237,0.0,3.1,51,0.00,,---,0.20,VWS V13.01,2013-02-01 02:36:00,
2013-01-31 21:41:00,32.4,16.7,0.00,WSW,237,0.0,0.0,52,0.00,,---,0.20,VWS V13.01,2013-02-01 02:41:00,
2013-01-31 21:46:00,32.2,17.0,0.00,WSW,238,0.0,0.0,53,0.00,,---,0.20,VWS V13.01,2013-02-01 02:46:00,
2013-01-31 21:51:00,32.2,17.4,0.00,SW,235,0.0,0.0,54,0.00,,---,0.20,VWS V13.01,2013-02-01 02:51:00,
2013-01-31 21:56:00,32.2,17.4,0.00,NNW,334,0.0,3.1,54,0.00,,---,0.20,VWS V13.01,2013-02-01 02:56:00,
2013-01-31 22:01:00,32.2,17.8,0.00,SW,233,0.0,0.0,55,0.00,,---,0.20,VWS V13.01,2013-02-01 03:01:00,
2013-01-31 22:06:00,32.2,17.8,0.00,North,2,0.0,0.0,55,0.00,,---,0.20,VWS V13.01,2013-02-01 03:06:00,
2013-01-31 22:11:00,32.2,18.3,0.00,North,2,0.0,0.0,56,0.00,,---,0.20,VWS V13.01,2013-02-01 03:11:00,
2013-01-31 22:16:00,32.2,18.3,0.00,North,2,0.0,0.0,56,0.00,,---,0.20,VWS V13.01,2013-02-01 03:16:00,
2013-01-31 22:21:00,32.0,18.1,0.00,NW,320,0.0,0.0,56,0.00,,---,0.20,VWS V13.01,2013-02-01 03:21:00,
2013-01-31 22:27:00,32.0,18.1,0.00,NW,320,0.0,0.0,56,0.00,,---,0.20,VWS V13.01,2013-02-01 03:27:00,
2013-01-31 22:32:00,32.2,18.7,0.00,NW,312,0.0,0.0,57,0.00,,---,0.20,VWS V13.01,2013-02-01 03:32:00,
2013-01-31 22:37:00,32.0,18.1,0.00,NW,312,0.0,0.0,56,0.00,,---,0.20,VWS V13.01,2013-02-01 03:37:00,
2013-01-31 22:42:00,32.0,18.5,0.00,NW,312,0.0,0.0,57,0.00,,---,0.20,VWS V13.01,2013-02-01 03:42:00,
2013-01-31 22:47:00,32.0,18.9,0.00,NNE,13,0.0,0.0,58,0.00,,---,0.20,VWS V13.01,2013-02-01 03:47:00,
2013-01-31 22:52:00,32.0,18.9,0.00,NNE,13,0.0,0.0,58,0.00,,---,0.20,VWS V13.01,2013-02-01 03:52:00,
2013-01-31 22:57:00,32.0,19.3,0.00,WNW,286,0.0,0.0,59,0.00,,---,0.20,VWS V13.01,2013-02-01 03:57:00,
2013-01-31 23:02:00,32.0,20.1,0.00,WSW,238,2.2,4.0,61,0.00,,---,0.20,VWS V13.01,2013-02-01 04:02:00,
2013-01-31 23:07:00,32.2,20.6,0.00,West,277,0.0,4.0,62,0.00,,---,0.20,VWS V13.01,2013-02-01 04:07:00,
2013-01-31 23:12:00,32.2,20.6,0.00,West,269,0.0,4.0,62,0.00,,---,0.20,VWS V13.01,2013-02-01 04:12:00,
2013-01-31 23:17:00,32.2,20.6,0.00,North,357,0.0,4.0,62,0.00,,---,0.20,VWS V13.01,2013-02-01 04:17:00,
2013-01-31 23:22:00,32.2,20.6,0.00,NNW,327,0.0,0.0,62,0.00,,---,0.20,VWS V13.01,2013-02-01 04:22:00,
2013-01-31 23:27:00,32.2,20.6,0.00,West,270,0.0,0.0,62,0.00,,---,0.20,VWS V13.01,2013-02-01 04:27:00,
2013-01-31 23:32:00,32.4,21.2,0.00,SSE,147,0.0,2.2,63,0.00,,---,0.20,VWS V13.01,2013-02-01 04:32:00,
2013-01-31 23:37:00,32.7,20.4,0.00,WNW,297,0.0,3.1,60,0.00,,---,0.20,VWS V13.01,2013-02-01 04:37:00,
2013-01-31 23:42:00,32.9,19.8,0.00,NW,308,0.0,0.0,58,0.00,,---,0.20,VWS V13.01,2013-02-01 04:42:00,
2013-01-31 23:47:00,32.9,20.2,0.00,SSW,207,0.0,2.7,59,0.00,,---,0.20,VWS V13.01,2013-02-01 04:47:00,
2013-01-31 23:52:00,33.1,19.9,0.00,SW,215,2.2,3.6,58,0.00,,---,0.20,VWS V13.01,2013-02-01 04:52:00,
2013-01-31 23:57:00,33.1,19.9,0.00,West,261,0.0,3.6,58,0.00,,---,0.20,VWS V13.01,2013-02-01 04:57:00,